Location: Fort Worth, Tx
(32.7431°N, 97.3695°W)
Time: 06:27:57
(UTC-05:00)

Tiros 1 - Pass Details

Date: 14 November 2024
Orbit: 622 x 653 km, 48.4° (Epoch: 05 December)

Event Time Altitude Azimuth Distance (km) Brightness Sun altitude
Rises 19:44:58 0° 291° (WNW) 2,950 11.5 -16.2°
Reaches altitude 10° 19:48:28 10° 318° (NW) 2,047 10.1 -16.9°
Maximum altitude 19:50:50 14° 348° (NNW) 1,822 9.5 -17.4°
Enters shadow 19:53:01 11° 17° (NNE) 2,021 9.4 -17.9°
